Current weather by "City, St" or "zip code"  
 

Current Conditions: Duluth International Airport, MN

Fair


52.0 F

Last Updated on Sep 18 2020, 10:55 am CDT
Humidity: 40%
Wind Speed: S 10.4 mph
Barometer 30.44 in
Dewpoint: 28.0 F
Visibility: 10.00 mi
Precip: --
Heat Index: NA
Wind Chill: 48 F
Current conditions at:

Duluth International Airport, MN (KDLH)

Lat: 46.84347 Lon: 92.1866

Local Radar Image active severe weather and emergency alerts image image weather storm and storm spotter reports image weather observation monitoring service image
Local
Radar
Active
Alerts
Storm Reports Obs
Monitoring

Sign-up For Email & Text Message Weather Alert Notification Services



Advertise Here

Observation History for Duluth International Airport, MN


Time Wind
(mph)
Vis
(mi)
Weather Precip (in) Temperature (F) Relative
Humidity
Wind
Chill
(F)
Heat
Index
(F)
Pressure
Air Dwpt altimeter
(in)
sea level
(mb)
Rmks
10:55 am CDT S 10.4 10.00 Fair -- 52.0 28.0 40% 48 NA 30.44 1031.9
9:55 am CDT S 8.1 10.00 Fair -- 50.0 30.9 48% 47 NA 30.44 1031.9
8:55 am CDT N 0.0 10.00 Fair -- 45.0 36.0 71% NA NA 30.43 1031.8
7:55 am CDT N 0.0 10.00 Fair -- 34.0 28.9 82% NA NA 30.43 1031.9
6:55 am CDT N 0.0 10.00 Fair -- 30.0 26.1 85% NA NA 30.42 1031.5
5:55 am CDT N 0.0 10.00 Fair -- 29.0 24.1 82% NA NA 30.41 1031.1
4:55 am CDT N 0.0 10.00 Fair -- 29.0 25.0 85% NA NA 30.40 1030.8
3:55 am CDT N 0.0 10.00 Fair -- 32.0 26.1 79% NA NA 30.38 1030.2
2:55 am CDT N 0.0 10.00 Fair -- 32.0 27.0 82% NA NA 30.38 1030.0
1:55 am CDT N 3.5 10.00 Fair -- 35.0 26.1 70% NA NA 30.37 1029.7
12:55 am CDT N 4.6 10.00 Fair -- 34.0 26.1 73% 30 NA 30.37 1029.8
11:55 pm CDT NE 4.6 10.00 Fair -- 38.0 27.0 65% 34 NA 30.36 1029.3
10:55 pm CDT N 4.6 10.00 Fair -- 40.0 27.0 60% 37 NA 30.34 1028.8
9:55 pm CDT N 4.6 10.00 Fair -- 39.0 30.0 70% 36 NA 30.33 1028.5
8:55 pm CDT N 4.6 10.00 A Few Clouds -- 44.0 27.0 51% 41 NA 30.31 1027.8
7:55 pm CDT N 3.5 10.00 Mostly Cloudy -- 48.0 24.1 39% NA NA 30.30 1027.4
6:55 pm CDT N 5.8 10.00 Partly Cloudy -- 51.0 24.1 35% 49 NA 30.28 1027.0
5:55 pm CDT N 6.9 10.00 Partly Cloudy -- 54.0 21.0 28% 52 NA 30.27 1026.3
4:55 pm CDT N 9.2 10.00 A Few Clouds -- 55.0 19.0 24% 52 NA 30.26 1026.1
3:55 pm CDT 5.8 10.00 A Few Clouds -- 57.0 19.9 24% 56 NA 30.27 1026.3
2:55 pm CDT NW 10.4 G 17.3 10.00 Fair -- 56.0 23.0 28% 53 NA 30.28 1026.4
1:55 pm CDT N 10.4 G 18.4 10.00 Fair -- 55.0 25.0 31% 52 NA 30.29 1026.7
12:55 pm CDT W 11.5 10.00 Fair -- 52.0 24.1 34% 48 NA 30.30 1027.1
11:55 am CDT W 8.1 G 17.3 10.00 Fair -- 51.0 25.0 36% 48 NA 30.31 1027.5

Regional Weather Observation


Eveleth-Virginia Municipal Airport, MN (KEVM)

Fair
51.0 F

Duluth - Sky Harbor Airport, MN (KDYT)

Fair
52.0 F

Cloquet Carlton County Airport, MN (KCOQ)

Fair
52.0 F

Chisholm-Hibbing Airport, MN (KHIB)

Fair
50.0 F

Richard I. Bong Airport, WI (KSUW)

Fair
53.0 F

Two Harbors, MN (KTWM)

Fair
54.0 F